Greenwood, MS

3:26 PM CST on December 03, 2016 (GMT -0600)
Greenwood-Leflore

Weather History for KGWO - November, 2013

Change the Weather History Date:

Monday, November 18, 2013

  Actual Average Record
Temperature  
Mean Temperature 58 °F 54 °F  
Max Temperature 70 °F 65 °F 84 °F (1991)
Min Temperature 45 °F 42 °F 20 °F (1959)
Degree Days  
Heating Degree Days 7 12  
Month to date heating degree days 189 170  
Since 1 July heating degree days 305 301  
Cooling Degree Days 0 0  
Month to date cooling degree days 6 14  
Year to date cooling degree days 2098 2156  
Growing Degree Days 7 (Base 50)    
Moisture  
Dew Point 39 °F    
Average Humidity 58    
Maximum Humidity 92    
Minimum Humidity 23    
Precipitation  
Precipitation T in 0.16 in 6.62 in (1948)
Month to date precipitation 0.89 2.43  
Year to date precipitation 50.60 44.03  
Sea Level Pressure  
Sea Level Pressure 30.13 in    
Wind  
Wind Speed 7 mph (NNE)    
Max Wind Speed 17 mph    
Max Gust Speed 26 mph    
Visibility 10 miles    
Events      
T = Trace of Precipitation, MM = Missing Value Source: NWS Daily Summary

Daily Weather History Graph

Daily Weather History Graph

Search for Another Location

Airport or City:

Trip Planner

Search our weather history database for the weather conditions in past years. The results will help you decide how hot, cold, wet, or windy it might be!

Date:

Astronomy

Nov. 18, 2013 Rise Set
Actual Time 6:34 AM CST 4:55 PM CST
Civil Twilight 6:08 AM CST 5:22 PM CST
Nautical Twilight 5:38 AM CST 5:52 PM CST
Astronomical Twilight 5:08 AM CST 6:22 PM CST
Moon 5:59 PM CST (11/18) 7:23 AM CST (11/18)
Length of Visible Light 11h 14m
Length of Day
10h 21m
Full, 99% of the Moon is Illuminated
Nov 18
Full
Nov 25
Last Quarter
Dec 2
New
Dec 9
First Quarter
Dec 17
Full

Hourly Weather History & Observations

Time (CST) Temp. Dew Point Humidity Pressure Visibility Wind Dir Wind Speed Gust Speed Precip Events Conditions
12:53 AM 64.0 °F 50.0 °F 60% 30.01 in 10.0 mi NE 9.2 mph - 0.00 in   Overcast
1:53 AM 63.0 °F 51.1 °F 65% 30.03 in 10.0 mi NNE 3.5 mph - N/A   Overcast
2:53 AM 62.1 °F 48.0 °F 60% 30.04 in 10.0 mi North 4.6 mph - N/A   Overcast
3:53 AM 59.0 °F 46.0 °F 62% 30.05 in 10.0 mi North 3.5 mph - N/A   Mostly Cloudy
4:53 AM 52.0 °F 46.0 °F 80% 30.06 in 10.0 mi North 3.5 mph - N/A   Partly Cloudy
5:53 AM 51.1 °F 41.0 °F 68% 30.08 in 10.0 mi North 4.6 mph - N/A   Clear
6:53 AM 45.0 °F 42.1 °F 90% 30.09 in 10.0 mi Calm Calm - N/A   Clear
7:53 AM 55.9 °F 43.0 °F 62% 30.11 in 10.0 mi North 6.9 mph - N/A   Clear
8:53 AM 59.0 °F 39.0 °F 48% 30.15 in 10.0 mi North 12.7 mph 18.4 mph N/A   Clear
9:53 AM 63.0 °F 37.0 °F 38% 30.16 in 10.0 mi North 12.7 mph - N/A   Clear
10:53 AM 66.0 °F 34.0 °F 30% 30.16 in 10.0 mi NNE 11.5 mph - N/A   Clear
11:53 AM 66.9 °F 30.9 °F 26% 30.14 in 10.0 mi NNE 9.2 mph - N/A   Clear
12:53 PM 69.1 °F 30.9 °F 24% 30.14 in 10.0 mi North 10.4 mph 17.3 mph N/A   Clear
1:53 PM 68.0 °F 30.9 °F 25% 30.13 in 10.0 mi North 10.4 mph - N/A   Clear
2:53 PM 68.0 °F 34.0 °F 28% 30.14 in 10.0 mi NNE 12.7 mph - N/A   Clear
3:53 PM 64.9 °F 37.0 °F 36% 30.14 in 10.0 mi NNE 5.8 mph - N/A   Clear
4:53 PM 57.0 °F 39.0 °F 51% 30.16 in 10.0 mi North 4.6 mph - N/A   Clear
5:53 PM 55.9 °F 39.0 °F 53% 30.18 in 10.0 mi North 6.9 mph - N/A   Clear
6:53 PM 54.0 °F 42.1 °F 64% 30.18 in 10.0 mi North 8.1 mph - N/A   Clear
7:53 PM 51.1 °F 42.1 °F 71% 30.19 in 10.0 mi North 5.8 mph - N/A   Clear
8:53 PM 48.0 °F 39.0 °F 71% 30.20 in 10.0 mi North 5.8 mph - N/A   Clear
9:53 PM 46.9 °F 37.0 °F 68% 30.21 in 10.0 mi NNE 6.9 mph - N/A   Clear
10:53 PM 50.0 °F 35.1 °F 57% 30.21 in 10.0 mi NE 8.1 mph - N/A   Clear
11:53 PM 51.1 °F 33.1 °F 50% 30.21 in 10.0 mi NE 11.5 mph - N/A   Clear